Regional Weather Roundup
Issued by NWS

Home | Current Version | Previous Version | Text Only | Print | Product List | Glossary Off
Versions: 1 2 3 4 5 6 7 8 9 10 11 12 13 14 15 16 17 18 19 20 21 22 23 24 25 26 27

000
ASUS45 KCYS 240510
RWRWY

WYOMING REGIONAL WEATHER ROUNDUP
NATIONAL WEATHER SERVICE CHEYENNE WY
1100 PM MDT THU MAR 23 2017

NOTE:  "FAIR" INDICATES FEW OR NO CLOUDS BELOW 12,000 FEET
WITH NO SIGNIFICANT WEATHER AND/OR OBSTRUCTIONS TO VISIBILITY.

WYZ001-240600-
YELLOWSTONE NATIONAL PARK

CITY           SKY/WX    TMP DP  RH WIND       PRES   REMARKS
LK YELLOWSTONE   N/A     25  20  81 CALM      30.05R
W YELLOWSTONE  NOT AVBL

$$
WYZ002>013-054>058-071-098>099-240600-
NORTHERN WYOMING

CITY           SKY/WX    TMP DP  RH WIND       PRES   REMARKS
JACKSON        FAIR      30  28  93 N5        30.01R WCI  25
CODY           FAIR      39  32  76 SW8       30.00R WCI  33
GREYBULL       FAIR      41  35  79 S5        29.97R
WORLAND        FAIR      36  35  96 S6        29.97S WCI  31
SHERIDAN       FAIR      41  34  76 SE5       29.98R
BUFFALO        MOCLDY    41  31  67 CALM      29.99S
GILLETTE       CLOUDY    39  39 100 MISG      29.96F
HULETT         FOG       36  34  93 CALM      29.93F VSB 1/2
NEWCASTLE      FAIR      41  30  65 NW12      29.91R

$$
WYZ014>020-022>026-101>103-240600-
CENTRAL WYOMING

CITY           SKY/WX    TMP DP  RH WIND       PRES   REMARKS
BIG PINEY      FAIR      31  26  82 N14       29.98R WCI  21
PINEDALE       FAIR      32  30  93 W6        29.98R WCI  26
DUBOIS         FAIR      32  30  93 CALM      30.00R
LANDER         CLOUDY    38  35  89 NW5       29.99R WCI  34
RIVERTON       CLOUDY    38  36  92 W5        30.00R WCI  34
CASPER         CLOUDY    37  35  92 N8        29.97S WCI  31
DOUGLAS        CLOUDY    38  32  79 NW13      29.94R WCI  30

$$
WYZ021-027>030-104>119-240600-
SOUTHERN WYOMING

CITY           SKY/WX    TMP DP  RH WIND       PRES   REMARKS
EVANSTON       FAIR      30  25  81 W5        30.03R WCI  25
KEMMERER         N/A     32  28  86 W14       30.00R WCI  22
FORT BRIDGER   CLOUDY    36  35  99 W10       30.03R WCI  28
ROCK SPRINGS   CLOUDY    37  30  75 NE12      29.99R WCI  29
DIXON            N/A     38  32  78 N16G24    29.91R WCI  29
RAWLINS        MOCLDY    35  29  78 N12       29.94R WCI  27
SARATOGA       CLOUDY    34  32  93 NW15      29.92R WCI  24
LARAMIE        FAIR      34  28  79 N15       29.87R WCI  24
CHEYENNE       CLOUDY    36  31  82 N21G41    29.84R WCI  25
TORRINGTON     CLOUDY    43  36  76 N16G23    29.89R
PINE BLUFFS    CLOUDY    39  37  93 N21G30    29.84R WCI  29

$$




USA.gov is the U.S. government's official web portal to all federal, state and local government web resources and services.